Wind_Speed
21 20 19 3 3 4 4 3 3 4 3 2 4 1 5 4 1 2 11 11 28 26 23 21 20 18 18 18 18 19 19 19 19 19 18 17 16 15 13 11 9 9 8 9 9 9 10 11 11
27 21 5 1 5 4 4 3 2 1 3 4 6 3 5 3 4 9 11 20 28 26 24 24 22 19 18 18 18 19 19 18 18 17 17 16 15 14 12 10 7 6 7 7 8 10 9 10 11
28 13 3 3 3 3 3 2 2 5 4 3 3 5 3 3 6 12 11 26 27 25 23 23 22 19 18 19 19 18 18 17 15 14 15 14 14 12 11 9 8 6 6 6 8 7 7 11 10
15 3 2 3 2 2 3 5 3 4 3 7 6 5 4 4 8 6 22 28 26 25 23 23 21 19 17 18 17 16 17 16 14 13 13 13 12 12 11 9 8 7 6 6 5 6 9 11 11
9 2 3 4 4 3 2 4 4 2 3 5 2 2 4 3 7 18 23 26 26 25 23 22 21 19 17 17 16 15 16 15 13 12 12 11 11 9 8 8 7 6 5 5 4 4 6 10 10
2 2 5 0 3 3 4 1 2 1 3 6 5 4 2 6 18 21 24 25 25 26 23 23 21 19 18 17 16 15 14 14 13 12 11 11 10 8 8 7 6 5 5 5 5 4 5 8 10
5 4 4 3 0 2 5 4 1 3 5 3 8 4 1 3 13 20 24 23 23 23 23 23 21 18 16 16 15 14 14 13 13 12 10 10 8 8 6 6 6 6 6 5 5 4 4 7 11
4 4 3 3 3 5 7 6 5 4 2 4 7 6 4 8 18 20 21 21 22 22 20 20 20 19 18 17 16 14 13 12 12 12 11 10 8 7 6 5 4 5 5 5 4 4 4 5 9
2 4 2 5 6 3 5 5 3 2 7 1 1 5 10 27 23 22 20 18 18 17 16 19 20 19 18 17 16 15 13 13 11 10 10 9 9 8 7 6 5 4 4 4 4 5 5 6 10
5 3 4 3 4 6 6 6 7 3 4 3 4 10 27 25 25 21 18 17 16 20 21 20 19 18 18 18 17 16 16 14 12 11 10 10 9 8 7 6 6 6 5 5 5 5 6 7 9
3 3 3 2 3 6 10 6 4 10 3 7 10 14 17 22 19 19 19 25 30 25 23 22 21 19 18 18 18 17 16 14 14 13 12 11 10 10 9 9 9 8 8 7 6 6 7 8 9
4 4 3 1 5 5 9 8 5 7 5 9 14 19 15 15 15 19 18 20 24 27 25 23 22 21 20 18 19 17 16 15 14 13 12 12 12 12 12 13 10 11 10 9 8 8 9 9 10
2 2 4 2 4 4 5 4 5 5 4 14 16 15 14 14 18 21 23 22 24 26 26 23 20 19 19 21 19 17 17 15 13 13 13 12 12 12 12 12 11 8 11 12 11 10 11 12 11
5 5 8 3 2 7 9 3 5 1 11 13 16 15 14 14 19 17 17 20 26 24 22 14 7 13 20 20 18 17 14 16 14 13 13 14 15 14 14 14 13 12 11 11 13 14 14 15 13
2 4 5 3 5 3 8 2 7 6 13 14 13 12 12 11 14 20 23 23 26 21 18 18 16 13 24 21 17 17 18 22 16 15 15 15 16 14 13 15 15 13 13 13 15 16 18 18 17
6 6 5 4 5 2 7 7 4 12 15 14 14 12 12 11 18 18 18 19 21 21 21 25 10 6 23 25 20 16 13 13 12 13 13 13 13 13 13 15 15 12 13 12 15 17 18 20 18
7 1 4 9 3 5 5 6 5 11 12 13 13 12 12 9 9 17 14 20 23 25 25 24 23 16 13 25 14 9 6 2 5 12 10 11 10 9 8 8 10 10 13 15 15 17 18 20 21
2 4 5 5 6 0 5 1 4 10 11 11 11 10 8 9 13 13 14 19 24 25 27 26 21 21 10 13 7 8 4 4 7 6 5 4 5 3 2 4 8 9 11 13 16 17 18 19 20
2 2 4 5 4 3 3 3 5 8 7 9 9 8 8 8 6 14 18 20 24 24 27 27 17 20 10 4 2 5 10 8 8 5 5 3 5 4 3 5 6 7 9 11 12 13 15 18 17
1 2 4 6 6 2 4 2 2 10 14 17 15 11 8 6 7 12 21 19 23 25 26 23 18 14 9 2 4 4 8 6 3 2 4 6 3 1 3 4 5 7 9 11 13 13 11 11 13
2 4 2 3 5 3 1 5 5 3 6 5 5 5 6 10 9 8 15 19 19 22 23 19 11 11 8 5 9 9 10 8 4 6 7 6 3 2 2 3 6 9 11 12 13 13 14 12 10
1 5 2 0 4 1 5 3 6 2 8 5 8 10 9 9 6 8 14 16 19 20 20 17 11 11 9 8 10 11 10 8 5 7 8 6 4 2 4 6 8 9 9 9 9 10 14 14 11
7 3 3 3 4 3 6 4 7 6 7 6 3 6 8 10 11 12 13 18 19 17 19 15 11 12 10 10 13 11 7 6 10 10 6 4 4 6 7 8 9 8 7 6 6 9 12 14 13
6 5 8 5 3 4 4 3 5 3 5 7 1 5 9 8 7 7 16 19 19 16 20 14 12 14 10 11 11 8 9 10 11 7 5 6 7 8 8 8 9 7 5 2 4 6 8 10 13
6 7 3 4 5 5 2 2 8 7 5 6 7 9 6 6 9 9 9 14 19 20 17 14 16 17 12 8 7 7 8 7 6 6 7 8 9 10 11 11 12 9 6 4 3 2 1 7 12
3 6 6 4 3 4 3 2 5 5 8 8 5 6 7 7 7 9 11 16 17 19 17 15 16 17 13 10 6 4 8 8 6 6 7 8 9 9 9 8 9 10 8 6 3 4 2 2 6
4 3 4 8 3 2 3 6 9 5 7 8 4 6 10 8 10 12 13 14 20 23 20 18 18 16 14 12 13 11 9 9 7 7 7 7 6 8 9 6 8 12 13 10 9 9 8 5 2
4 6 4 3 4 3 4 4 5 4 6 7 4 5 5 2 6 8 9 15 18 19 19 17 16 16 14 12 12 13 11 10 8 8 9 6 7 7 8 8 9 11 11 14 14 13 10 8 8
2 3 7 6 4 5 2 6 7 10 5 1 4 0 2 5 5 5 7 12 15 17 17 15 14 12 13 14 13 14 12 10 9 8 8 8 8 8 10 12 12 15 16 14 13 15 14 14 12
2 5 6 5 4 1 3 5 1 3 4 4 5 3 3 3 5 5 10 13 14 15 14 12 11 11 14 10 10 11 10 9 8 7 8 8 10 10 11 13 14 16 18 17 20 21 18 16 17
Wind_Direction
144 147 149 163 54 62 359 12 337 28 41 341 80 112 127 54 87 185 148 162 157 157 157 158 154 146 144 142 142 141 142 141 142 143 148 154 156 151 152 152 155 150 148 150 143 140 139 139 135
153 143 154 7 73 68 300 320 134 358 114 110 84 76 56 58 78 122 133 154 158 157 161 161 157 151 146 146 147 148 146 144 142 141 146 150 151 155 156 150 155 150 161 149 150 148 149 146 144
157 151 119 115 99 150 172 247 157 135 129 51 71 56 53 49 94 143 153 157 158 158 162 162 157 155 153 153 151 150 148 147 146 147 149 149 151 150 147 144 144 138 139 148 157 153 153 153 152
152 238 328 71 36 290 197 162 139 135 109 71 98 62 71 150 141 163 150 159 159 159 160 162 163 161 158 154 152 152 151 151 149 148 149 154 153 151 150 150 147 149 150 136 150 154 170 167 161
159 99 59 63 323 306 95 163 142 137 85 77 77 82 63 34 133 148 154 160 161 160 162 163 167 165 163 158 157 157 154 154 152 150 153 159 159 156 153 156 160 158 150 149 131 159 179 171 168
91 161 56 66 312 48 50 165 135 58 73 123 81 73 50 135 139 146 158 163 165 163 165 166 170 172 169 164 163 163 161 158 161 159 164 167 166 158 166 171 176 173 163 149 155 167 191 178 173
143 77 165 161 198 113 171 183 188 156 127 121 132 92 46 135 138 144 161 164 167 169 170 172 173 173 172 171 170 171 170 168 166 173 174 172 176 179 181 188 178 177 174 167 157 154 198 192 182
102 88 128 199 198 203 170 143 155 134 81 87 136 154 186 166 147 156 161 167 171 174 176 177 176 175 176 176 175 178 177 176 175 184 180 180 182 187 191 194 199 185 180 186 175 158 170 195 190
125 64 187 196 167 167 152 121 201 65 127 136 65 145 146 148 153 153 160 167 173 176 179 182 180 180 181 181 180 174 182 188 188 185 187 189 196 191 190 206 213 221 216 214 209 186 182 184 196
78 100 232 190 192 148 164 133 158 120 143 53 58 94 130 145 150 152 166 175 182 185 189 189 188 187 187 187 184 186 184 187 191 194 193 212 210 205 210 213 219 217 234 235 221 225 202 201 203
169 165 188 278 233 162 146 130 155 128 229 193 170 150 149 154 160 168 181 187 192 192 194 195 194 194 197 196 194 194 194 194 191 200 208 216 222 221 217 226 224 230 228 242 240 226 222 219 218
358 229 211 279 215 145 162 143 125 173 238 163 161 154 157 165 169 178 187 192 195 199 200 199 200 200 201 203 205 204 202 200 205 208 216 223 228 232 237 246 260 243 240 245 241 243 238 226 228
133 306 186 243 226 165 146 138 166 231 84 124 139 153 174 178 182 190 192 197 198 203 204 205 205 209 213 213 210 213 214 215 216 220 224 228 234 245 251 263 271 239 240 240 245 240 240 232 229
315 290 287 15 190 153 154 138 117 195 131 138 155 168 180 190 192 186 190 197 202 206 203 201 211 259 237 229 229 219 220 226 223 225 229 226 237 248 255 259 263 256 254 260 250 251 250 250 244
269 5 333 199 182 167 109 44 227 154 156 153 174 178 185 195 192 199 198 198 204 200 180 151 107 201 244 243 237 233 222 233 227 226 232 232 234 240 247 258 258 263 258 258 251 257 256 246 247
35 50 13 303 131 179 127 246 222 163 158 172 180 187 195 201 201 204 207 203 204 195 187 166 185 194 225 245 235 235 238 234 234 243 234 239 234 242 247 261 261 266 260 251 249 248 251 254 251
7 317 324 318 172 144 175 238 208 169 170 179 188 194 198 206 209 210 191 205 208 199 194 192 218 239 234 234 213 200 208 251 286 264 251 247 248 241 271 278 256 262 248 258 255 254 253 253 254
304 334 311 245 299 230 171 181 144 180 181 191 196 191 197 200 215 197 187 201 216 200 202 204 226 231 239 232 205 204 204 267 309 241 245 212 176 196 238 247 252 261 264 263 253 256 258 254 255
149 228 264 266 280 231 203 84 227 165 182 201 208 197 197 213 172 163 165 190 203 201 201 205 226 226 234 212 248 165 211 285 289 259 270 156 162 157 212 223 238 260 265 263 261 261 255 252 246
249 259 270 289 333 122 9 57 293 173 215 207 200 199 191 155 171 140 141 175 199 199 205 202 213 224 211 199 211 179 210 266 186 330 134 149 145 203 207 223 252 263 261 263 261 254 250 248 233
224 207 224 221 345 39 60 353 355 277 308 265 199 169 182 190 190 146 143 166 190 201 204 198 221 196 194 156 129 137 134 131 115 79 92 102 118 160 214 259 275 274 274 274 264 251 241 238 224
252 212 160 33 59 266 26 275 303 245 276 292 171 179 189 181 173 151 153 162 188 202 203 194 216 202 178 150 143 142 130 126 91 93 101 101 99 55 327 313 301 297 285 284 271 255 243 234 218
215 112 61 68 83 67 3 82 266 343 347 343 224 190 186 193 177 182 153 164 186 196 196 206 211 193 174 161 141 120 98 115 129 131 116 71 22 0 350 339 338 326 303 283 268 252 243 237 229
136 75 49 53 72 32 291 125 296 314 275 310 180 197 190 183 121 106 127 166 177 190 202 208 200 187 170 157 145 118 98 119 125 114 65 40 27 28 21 14 360 354 350 286 289 268 241 233 236
77 61 6 5 14 205 313 34 240 274 251 248 232 206 174 138 146 139 141 148 168 180 190 192 194 190 175 161 140 117 106 109 101 84 62 44 34 24 20 16 16 18 15 4 350 315 245 223 229
98 142 146 179 188 259 309 284 270 261 307 288 207 146 148 164 152 152 162 169 164 177 183 194 193 201 192 180 156 129 114 107 87 74 66 58 43 32 26 29 37 38 24 12 36 41 38 209 233
181 118 164 104 10 39 283 288 314 329 342 10 33 151 180 166 168 172 179 161 172 178 180 191 194 206 199 198 169 148 134 117 108 102 87 76 61 31 21 29 48 51 41 48 62 68 66 69 92
160 150 82 16 134 220 293 279 237 278 280 25 14 17 328 259 190 181 159 164 178 175 174 190 195 199 188 170 154 141 134 122 110 105 91 77 63 40 23 47 57 57 57 58 66 69 66 73 71
139 119 56 110 111 156 190 268 215 207 141 102 310 352 293 251 240 190 141 159 171 178 179 186 184 189 164 148 152 136 128 109 101 94 83 75 64 43 42 56 64 65 62 62 70 70 67 60 58
197 139 128 120 221 114 151 268 263 241 187 141 235 199 160 233 214 165 146 160 157 177 178 169 166 156 140 139 138 121 130 112 107 103 86 80 73 65 57 59 66 66 67 67 68 69 67 68 62
Height
769 773 775 776 795 797 807 794 776 778 776 767 764 770 778 781 786 808 789 791 793 798 802 805 808 810 812 814 816 818 819 821 822 824 826 828 830 832 833 835 836 837 838 838 840 841 841 842 842
767 772 777 778 804 820 813 785 786 777 771 766 767 771 779 790 782 786 789 792 795 798 801 804 809 812 814 816 817 818 820 822 824 825 826 828 831 832 834 836 837 839 839 840 839 842 842 843 843
768 771 778 790 807 818 808 783 781 773 767 768 775 772 779 789 786 788 789 792 796 799 802 806 810 813 814 816 818 820 822 824 826 828 829 830 832 834 836 837 838 839 840 840 841 842 844 844 845
767 773 775 794 799 787 786 780 775 777 770 769 774 787 780 783 787 789 791 794 798 801 804 808 811 813 816 818 820 822 823 825 827 829 831 832 834 835 836 837 837 838 840 840 841 843 842 843 846
766 771 793 797 798 784 775 773 773 778 777 777 775 792 791 788 787 790 793 796 799 802 806 809 811 814 816 819 821 823 824 826 828 830 831 833 834 836 836 837 838 839 840 841 842 843 844 845 846
771 772 804 810 796 781 777 772 774 778 778 780 785 790 794 791 789 792 796 798 801 803 807 810 812 815 817 819 822 824 825 826 829 830 832 833 835 836 837 837 839 840 841 841 842 843 845 846 847
771 784 802 799 795 787 782 771 779 781 781 783 777 798 796 794 795 795 798 801 804 807 808 810 813 816 819 821 822 825 826 827 829 831 833 834 836 837 838 839 839 839 840 841 841 843 844 845 847
764 780 798 795 796 791 773 774 772 776 782 774 778 797 800 793 796 798 801 803 806 808 811 813 814 816 818 819 821 824 826 828 830 831 833 834 836 837 839 840 841 840 839 840 841 842 843 845 848
756 794 804 792 792 781 771 778 772 767 776 776 778 781 781 788 794 800 802 806 808 811 813 814 815 817 819 820 821 822 826 829 831 831 833 835 835 837 838 840 841 841 840 841 841 841 843 844 846
772 798 783 770 766 773 769 771 774 779 781 785 785 781 783 789 793 798 801 804 807 809 811 814 816 817 819 820 821 823 823 826 830 832 833 834 835 836 838 838 840 840 841 841 842 843 843 845 845
772 784 770 765 760 758 767 772 769 780 789 781 784 786 787 789 793 796 800 800 801 807 809 812 814 816 819 820 821 822 823 825 827 830 832 833 834 835 836 837 837 839 839 841 841 842 843 843 844
774 762 762 760 759 762 769 766 774 773 770 763 772 778 786 789 792 795 798 802 804 805 807 810 813 816 817 819 820 822 823 824 825 827 829 831 832 834 835 835 834 836 837 839 840 840 842 843 843
769 763 761 758 759 760 762 769 772 774 767 767 775 783 787 788 790 792 795 801 804 805 805 810 815 817 818 816 818 821 822 823 823 825 826 828 829 832 833 833 834 834 836 836 837 838 839 841 841
762 761 760 753 756 757 769 771 769 773 769 775 778 781 784 787 788 793 797 800 801 803 808 818 825 824 818 818 819 819 820 822 822 822 824 825 827 829 830 831 832 833 835 836 836 837 838 840 840
761 768 764 762 758 763 761 781 779 770 770 777 781 782 783 786 791 791 793 797 798 802 810 814 822 805 810 815 817 819 820 820 818 819 822 823 825 825 827 828 829 832 832 833 833 833 834 836 837
777 780 798 764 760 761 765 798 770 768 771 779 778 780 783 783 784 789 795 798 799 801 806 807 802 800 806 810 814 816 816 817 817 820 819 821 821 822 823 825 827 828 830 830 831 831 832 833 834
798 807 798 786 760 763 769 784 766 767 771 777 776 778 780 782 784 787 794 795 796 798 799 801 799 801 805 810 811 814 816 816 817 818 819 819 819 819 820 820 824 825 826 826 826 827 828 829 829
806 806 801 799 773 765 774 775 771 770 772 776 775 777 779 780 779 784 790 792 793 796 799 799 801 802 806 807 811 812 815 816 817 817 818 818 817 818 819 820 821 822 822 822 823 823 824 825 826
790 799 804 789 767 770 776 774 772 774 774 776 775 777 777 776 779 783 787 789 790 794 797 800 801 803 807 808 810 811 814 817 818 819 817 816 816 817 818 819 820 820 820 820 820 820 820 821 822
791 798 799 784 771 768 776 779 773 772 766 762 766 773 775 776 777 781 785 791 789 791 795 800 802 804 807 809 810 810 811 816 818 817 816 817 816 817 818 819 819 818 818 817 816 816 817 817 820
789 795 788 790 782 778 781 794 785 770 767 765 766 769 771 773 774 781 785 789 790 792 796 800 803 805 806 808 808 810 812 814 816 817 817 816 817 817 817 817 817 815 814 813 813 813 813 815 816
794 775 776 782 798 816 796 835 798 783 786 772 768 767 768 770 772 777 781 786 787 791 796 801 804 807 808 808 809 811 811 813 815 816 817 817 817 816 816 815 813 812 811 809 809 810 811 812 813
785 770 781 789 807 808 812 831 806 788 784 779 772 767 765 764 767 770 778 784 788 791 795 799 803 807 809 810 810 812 813 813 815 817 817 817 816 814 813 812 810 809 807 807 807 807 807 808 810
770 782 801 816 825 843 824 826 820 803 792 784 770 767 763 762 770 773 780 785 791 789 796 798 803 807 809 810 810 811 814 815 816 816 815 815 815 813 812 811 809 807 806 805 805 804 803 804 806
781 808 849 842 856 851 822 825 812 788 781 777 771 765 764 766 769 773 776 784 785 788 793 796 801 804 807 809 810 809 810 816 817 817 815 814 814 814 812 810 808 807 806 805 803 803 801 801 804
787 800 844 848 863 845 823 823 805 778 772 769 762 763 766 767 769 773 774 777 784 787 792 795 795 801 802 805 807 809 809 812 816 816 816 815 815 816 815 812 810 808 806 805 803 802 801 801 803
790 804 800 844 850 847 838 813 787 776 774 776 773 766 764 766 767 768 771 777 784 786 791 793 795 799 801 805 802 805 810 812 817 819 819 819 817 817 816 815 811 807 807 805 803 802 803 802 803
771 783 815 832 846 844 842 830 821 786 781 785 779 779 776 772 769 772 773 777 783 789 789 792 797 799 801 804 807 807 811 815 818 820 820 821 819 819 818 815 812 809 809 807 805 805 805 805 804
785 798 817 825 837 852 854 835 792 783 783 785 781 778 777 775 773 773 775 782 787 791 789 793 798 800 801 803 808 809 812 816 819 821 822 821 821 821 819 815 813 810 810 809 808 807 808 807 806
767 784 798 828 828 847 844 825 774 778 780 784 781 776 775 773 773 773 774 779 788 793 793 796 799 802 802 803 808 810 815 817 819 822 822 823 822 824 822 818 816 815 812 813 811 809 810 811 810